Theta_e
349 351 351 352 352 353 352 352 350 353 349 352 353 353 352 350 349 348 349 349 349 349 349 349 348 347 347 345 344 345 343 342 341 340 340 339 336 338 339 338 338 338 342
349 351 351 351 352 351 349 347 351 353 352 351 347 351 350 348 347 349 349 349 349 348 349 349 348 348 346 344 344 344 344 346 347 344 341 341 340 337 338 338 338 338 338
350 351 353 353 353 346 345 352 352 352 352 349 352 353 354 353 351 350 349 348 348 349 349 349 349 347 345 344 344 343 343 343 343 343 344 343 342 341 339 338 338 338 336
351 352 352 353 353 352 350 353 352 351 350 352 354 353 352 352 351 350 349 347 348 348 349 349 348 346 345 344 343 343 341 338 339 341 341 342 344 343 341 339 338 338 337
352 352 354 353 353 353 352 352 349 351 353 355 352 351 351 351 351 350 348 349 349 348 348 348 346 346 345 344 345 342 339 338 337 337 338 339 342 344 343 341 339 337 337
353 354 353 353 353 352 353 352 352 353 354 355 352 352 352 351 351 351 350 350 349 350 349 348 347 347 344 342 345 342 341 340 340 339 338 335 333 336 342 343 343 341 339
353 353 353 349 354 354 353 353 352 352 351 355 353 352 352 352 351 351 351 350 350 349 350 349 347 346 342 340 344 343 342 341 341 340 338 336 335 333 333 339 341 343 341
351 353 352 351 351 354 353 350 343 341 348 354 353 348 353 352 351 353 352 352 351 350 351 350 347 345 342 340 341 340 340 341 340 338 335 336 336 335 334 334 338 342 344
352 352 352 353 353 352 352 348 343 348 348 351 355 350 352 352 346 347 351 353 352 352 351 350 348 345 343 340 339 339 339 340 337 333 332 336 337 338 336 337 338 341 344
352 351 353 354 353 352 353 350 341 341 346 348 353 354 353 348 353 354 348 352 352 352 351 350 348 345 343 341 340 339 338 335 333 332 332 337 339 339 338 338 339 342 343
352 352 353 355 355 351 352 352 350 347 350 349 351 354 355 353 351 348 352 340 350 351 351 350 348 346 344 342 340 339 335 334 333 331 333 333 333 334 338 339 341 344 344
355 353 354 355 348 345 353 353 353 353 354 355 354 355 356 353 349 345 344 342 344 347 349 349 348 347 343 341 339 337 334 334 332 331 332 332 333 333 333 335 336 344 344
354 356 354 354 355 355 355 355 354 355 357 357 357 357 357 357 354 354 347 347 346 346 348 349 348 347 344 341 339 337 335 334 331 330 331 331 332 333 332 332 335 340 344
352 354 353 353 353 354 356 357 356 357 357 358 358 358 359 359 358 357 354 349 351 345 346 348 347 346 345 342 339 337 336 334 330 330 329 329 328 328 329 331 332 337 343
353 352 354 357 357 357 357 357 358 358 356 357 357 357 354 352 352 357 357 354 351 356 349 346 346 345 345 343 339 337 335 333 330 329 328 328 328 328 328 329 330 331 335
355 355 356 359 358 358 358 358 357 358 357 354 352 352 344 341 342 348 355 356 355 349 352 346 344 343 344 342 340 336 334 332 329 328 326 327 327 327 326 327 329 330 333
356 358 359 358 357 357 357 358 358 357 357 351 348 351 345 343 340 338 348 356 356 353 347 348 345 343 344 342 339 336 334 332 330 328 327 326 326 326 325 325 327 330 331
355 356 356 354 354 356 356 356 355 350 349 342 341 341 342 338 336 337 336 351 358 357 350 346 346 343 345 343 340 336 334 332 329 329 328 327 326 326 325 325 326 328 330
350 351 349 347 346 346 343 340 338 338 338 337 336 335 334 334 334 335 337 348 357 356 354 346 346 345 345 343 339 335 334 332 328 329 329 328 328 327 327 326 324 326 329
339 337 338 338 337 337 335 335 337 337 336 336 335 335 333 334 335 336 338 331 339 358 356 352 348 346 344 342 336 335 333 332 328 329 329 329 329 328 327 327 324 325 328
340 340 340 338 338 338 337 337 338 338 338 338 335 332 333 337 335 327 330 330 340 351 354 352 348 344 339 337 336 338 333 333 330 329 330 329 329 328 327 325 324 326 328
333 330 329 328 327 329 332 332 332 336 336 335 338 339 339 338 334 326 325 331 331 338 342 349 349 345 344 341 342 340 336 329 330 330 330 330 330 329 326 327 327 327 327
329 329 327 325 324 324 326 327 327 325 327 327 326 324 325 325 325 327 330 331 331 334 334 339 349 350 347 348 343 336 336 332 332 330 330 330 329 328 327 327 327 327 328
326 324 324 324 324 326 327 327 327 328 329 329 328 329 330 329 329 330 331 333 335 338 334 334 336 334 342 347 347 345 344 335 332 331 330 331 328 327 326 327 328 326 327
326 326 326 327 327 327 324 323 327 326 324 324 323 323 327 332 330 329 331 333 336 333 332 333 335 336 335 342 346 343 336 331 333 330 330 329 327 327 327 328 327 327 325
325 324 323 324 322 321 321 321 321 321 321 321 322 323 323 323 329 337 334 334 336 335 333 330 330 335 338 339 345 344 342 333 332 328 330 329 327 328 328 327 328 327 326
Wind_Speed
14 12 12 11 10 9 8 8 9 9 9 10 9 11 12 12 8 7 7 6 7 6 4 5 6 7 8 10 10 12 14 16 19 20 21 23 22 20 21 22 21 20 19
15 13 10 12 9 8 8 9 10 11 9 10 9 9 10 11 9 8 6 3 4 4 4 4 6 7 8 9 7 7 9 13 18 19 21 23 24 23 21 22 23 22 19
17 14 12 10 9 5 6 8 8 7 6 9 8 8 10 9 4 7 5 3 2 3 3 3 5 6 6 7 5 4 4 6 10 13 18 21 22 24 23 23 23 22 22
16 11 10 9 7 6 7 5 5 6 7 7 9 10 10 6 4 6 5 4 2 1 3 3 3 4 6 6 5 3 4 5 5 6 9 12 18 23 23 24 25 25 24
11 8 10 7 8 7 6 4 6 7 7 6 8 9 7 4 5 6 2 3 4 2 3 3 3 4 5 6 4 4 3 3 2 0 1 3 7 16 21 24 29 29 25
7 10 10 9 6 7 6 5 7 6 6 7 7 6 4 3 5 4 6 3 4 5 5 5 5 5 6 6 4 5 5 4 3 2 3 5 6 9 14 21 27 33 32
12 10 10 7 6 8 7 7 9 7 4 5 3 3 5 3 1 4 6 8 7 7 7 8 7 6 6 5 5 6 7 7 6 6 7 9 10 11 13 16 21 30 33
13 11 10 7 8 5 5 8 10 5 2 3 2 2 3 3 5 8 10 12 11 10 11 10 8 7 5 3 3 6 7 7 8 10 13 14 15 15 15 16 18 23 35
16 13 11 10 9 8 7 8 6 1 3 2 2 1 1 2 4 5 9 13 13 13 12 12 10 9 8 7 6 6 6 7 10 12 13 13 12 13 15 16 17 20 32
11 13 13 10 9 10 9 9 6 6 4 5 4 3 3 1 1 3 4 8 15 15 15 15 13 12 11 10 9 8 8 9 11 11 11 9 10 10 13 15 16 19 27
10 13 15 14 14 10 11 11 9 6 7 6 6 5 3 3 5 2 3 5 10 16 17 18 16 15 14 12 11 10 11 10 13 12 11 11 11 11 10 12 15 18 28
10 12 13 13 11 15 13 14 11 9 9 9 9 9 9 6 4 5 3 5 5 8 11 18 19 17 15 14 12 12 11 11 14 13 11 11 11 11 11 10 11 12 24
9 7 7 15 18 21 19 15 15 13 11 12 12 11 12 14 11 9 4 4 2 4 5 10 17 18 17 15 14 13 13 11 12 11 10 11 11 10 10 10 9 9 26
12 7 8 11 15 15 12 15 15 12 13 13 14 14 13 13 13 14 10 5 3 3 4 11 10 15 18 16 15 13 14 12 11 10 10 11 12 11 10 9 9 8 16
13 11 11 8 8 7 7 10 11 9 8 7 5 6 9 16 22 20 16 16 7 4 3 6 7 7 14 17 15 15 13 11 10 9 10 11 12 12 12 11 10 9 9
12 13 13 11 8 6 8 11 11 9 9 5 2 4 10 16 25 27 28 22 18 12 5 6 10 12 11 15 14 15 13 12 11 10 8 9 11 11 11 12 12 12 12
14 13 14 16 14 12 13 14 14 13 12 8 5 11 7 10 24 33 31 27 19 18 11 14 14 13 15 15 15 16 15 14 13 10 8 8 9 11 11 12 12 12 12
14 14 13 12 13 11 10 10 11 9 8 7 3 2 2 1 12 45 38 32 24 22 20 15 18 17 17 17 18 19 18 17 15 13 11 10 9 11 10 11 12 12 11
3 5 5 4 4 1 2 3 4 5 10 10 8 8 7 9 21 21 28 29 26 22 23 22 19 17 16 18 19 22 21 20 19 17 15 14 11 11 11 12 13 14 12
5 5 3 1 1 4 5 6 3 6 5 8 12 12 13 7 15 28 19 26 27 23 23 22 22 22 20 20 21 22 23 23 22 20 19 16 15 11 10 12 14 14 13
5 4 2 2 1 2 5 8 6 5 7 8 5 2 3 8 13 16 20 24 22 20 21 18 16 15 15 16 18 23 27 25 22 23 22 20 18 14 10 12 13 12 13
3 2 4 4 4 5 5 7 8 5 5 9 12 11 12 16 20 21 21 21 22 20 20 15 16 15 21 21 26 28 24 14 7 23 24 23 18 16 11 10 13 10 11
6 3 3 4 5 6 7 7 8 9 12 11 13 14 18 21 21 21 21 23 22 21 22 21 19 20 20 25 22 22 26 22 18 11 20 16 15 15 12 11 12 9 8
8 8 7 6 7 7 7 8 9 8 8 8 7 10 14 16 18 18 19 20 18 15 15 15 17 20 23 26 23 21 21 26 22 18 18 9 12 13 12 12 12 9 8
7 6 8 7 6 5 6 12 8 5 5 6 6 6 9 11 13 16 18 18 17 17 16 17 19 18 18 21 23 21 19 14 11 12 23 12 10 11 12 13 13 11 9
8 7 7 5 7 10 11 10 11 13 13 14 13 13 12 11 12 15 16 15 15 17 17 19 20 19 19 17 19 21 23 19 9 7 20 17 12 10 3 10 14 14 11
Wind_Direction
287 299 307 310 305 309 318 317 327 319 326 311 296 278 278 283 287 292 305 321 325 326 323 266 261 287 294 291 276 259 252 251 246 245 242 243 240 236 231 222 218 214 215
282 287 293 298 310 311 309 311 319 311 312 317 306 295 290 282 272 259 261 283 320 343 330 284 286 294 305 308 297 278 255 245 241 244 244 244 243 238 234 224 216 208 206
271 276 278 293 314 335 318 317 329 351 331 329 325 310 303 297 249 223 220 217 252 289 277 270 295 303 307 320 311 296 281 272 265 253 246 240 238 238 237 226 213 206 204
254 265 273 290 316 320 320 328 340 348 327 323 313 302 297 282 207 180 203 194 234 255 282 308 306 312 316 325 325 317 297 291 284 261 252 247 238 232 230 226 214 205 207
253 247 265 283 304 299 308 298 324 326 323 332 329 294 269 245 160 176 126 237 238 267 311 300 279 317 322 325 311 315 323 321 319 310 281 264 239 235 232 227 216 224 225
272 261 272 288 287 267 278 285 320 329 330 344 359 40 106 136 168 188 224 324 269 276 300 307 313 325 324 323 274 278 285 303 298 295 315 312 280 247 238 235 233 230 229
261 264 270 266 276 262 270 276 297 299 308 342 331 23 52 57 210 245 257 263 292 269 281 287 309 320 323 330 251 262 271 279 287 298 301 302 296 280 252 242 242 235 223
270 265 261 262 248 260 258 284 296 289 276 9 354 30 10 329 274 266 265 260 281 269 269 280 284 299 299 322 279 280 278 272 274 294 299 298 292 282 272 255 250 245 223
256 261 260 268 257 252 273 289 305 236 320 314 5 105 79 258 332 302 273 261 274 271 267 265 269 282 289 292 296 302 295 271 287 298 298 298 294 280 273 263 258 252 225
255 257 250 266 266 268 280 284 276 282 289 324 338 319 291 347 284 328 330 276 263 261 259 258 263 270 274 282 294 299 296 298 307 309 305 305 306 301 285 270 272 253 227
278 255 250 248 252 255 251 274 278 277 270 282 288 298 294 277 257 188 274 299 274 266 260 257 261 267 270 275 280 285 295 299 312 311 301 302 310 312 307 284 286 257 220
279 263 251 240 265 251 253 255 267 264 259 261 276 277 274 259 252 219 234 273 267 302 276 258 258 260 261 267 269 274 284 295 310 309 304 304 307 311 321 305 298 255 215
273 267 237 240 257 267 268 249 255 258 268 269 268 275 275 276 280 283 261 283 296 294 290 274 258 256 256 258 263 266 277 288 303 306 306 307 306 306 312 322 297 261 216
269 266 253 261 268 274 249 236 249 263 273 283 288 285 284 284 285 282 273 250 282 260 271 261 271 255 251 254 257 262 269 281 295 299 300 301 302 306 310 307 307 284 233
266 270 259 277 274 261 225 231 240 258 270 284 315 3 9 358 344 302 283 269 255 295 284 291 253 269 249 249 253 259 261 269 282 292 302 299 300 307 308 301 294 292 245
262 263 247 250 250 222 210 212 223 229 233 235 205 118 60 30 15 349 316 290 263 248 272 278 287 266 260 252 250 249 254 262 272 283 299 295 298 304 310 305 296 291 280
258 259 250 251 248 245 243 241 232 230 232 220 215 226 229 327 346 334 328 298 271 255 252 280 288 287 254 252 247 245 250 255 263 269 284 288 297 300 306 304 299 293 293
263 270 272 275 273 259 247 241 221 209 215 200 236 211 148 351 317 289 293 298 287 272 254 260 282 278 259 249 248 245 248 252 251 254 269 279 292 296 291 301 306 297 293
287 285 277 312 349 32 142 178 197 232 265 265 255 239 241 304 13 255 258 297 293 279 267 250 264 276 266 253 244 240 244 251 250 248 254 267 279 292 281 284 298 306 293
2 26 6 244 270 302 343 344 327 290 292 264 261 258 238 235 179 204 263 291 291 285 278 264 258 260 264 250 243 243 244 242 246 246 250 258 270 283 277 279 284 301 296
332 16 358 309 159 249 314 301 300 300 298 284 271 275 260 261 263 284 283 292 289 280 276 264 253 257 238 225 224 242 238 245 247 244 247 251 261 270 268 272 274 292 291
334 307 294 311 338 326 298 297 296 284 282 291 287 279 274 272 275 279 268 273 277 276 274 258 262 253 262 246 249 242 233 223 244 241 238 248 250 260 257 264 267 283 288
312 298 303 321 320 299 295 301 294 294 294 281 274 275 274 274 275 272 273 275 273 270 270 275 267 265 259 265 258 238 235 225 222 222 212 234 235 249 245 249 261 274 278
289 304 311 310 303 306 316 326 307 291 285 285 291 284 274 276 277 279 279 280 279 277 281 282 277 283 274 274 265 264 261 240 234 226 212 211 224 236 239 239 250 259 260
290 309 316 310 302 339 6 350 341 353 330 314 312 324 332 319 301 280 273 268 268 272 282 288 290 287 286 277 266 254 234 199 222 218 217 215 209 218 229 232 239 240 247
294 311 313 328 357 342 333 339 322 326 320 322 304 305 311 314 326 315 287 265 263 275 293 298 303 303 300 282 265 248 240 201 196 207 216 199 190 192 227 234 223 227 218